Location: General Nathan Twining Observatory
(34.5931°N, 106.8201°W)
Time: 23:07:22
(UTC-06:00)

Daily predictions for brighter satellites

Satellite Brightness Start Highest point End
(mag) Time Altitude Azimuth Time Altitude Azimuth Time Altitude Azimuth
Cosmos 2221 2.5 20:45:31 10° N 20:49:48 72° E 20:54:04 10° SSE
Cosmos 1378 3.3 20:47:01 10° S 20:50:40 53° E 20:54:19 10° NNE
ATLAS 5 CENTAUR R/B 3.0 20:48:47 10° SW 20:53:26 49° NW 20:58:24 10° NNE
Cosmos 1766 Rocket 3.6 20:50:24 10° S 20:54:48 69° E 20:59:12 10° NNE
Delta 2 Rocket 4.0 20:53:36 10° SSW 20:56:37 25° SSE 20:59:30 10° E
Cosmos 968 Rocket 3.9 20:52:04 10° S 20:56:54 43° ESE 21:01:47 10° NNE
DELTA 2 R/B(2) 2.7 21:03:40 10° WSW 21:05:15 58° SSE 21:07:02 10° ENE
ASTRO E2 3.9 21:03:10 10° WSW 21:06:41 29° SSW 21:09:59 11° SE
DELTA 2 R/B (1) 4.4 21:01:59 10° W 21:07:24 51° N 21:12:47 10° ENE
ATLAS CENTAUR R/B 2.1 21:03:49 10° NNW 21:08:08 42° NE 21:11:44 12° SE
Cosmos 332 Rocket 4.0 21:03:28 10° N 21:08:13 55° ENE 21:12:59 10° SSE
Envisat 3.7 21:07:48 10° SE 21:12:24 36° ENE 21:17:02 10° N
CZ-4 DEB 3.7 21:16:09 10° S 21:19:15 48° W 21:22:23 10° NNW
Cosmos 1417 Rocket 4.5 21:13:51 10° N 21:20:05 77° E 21:26:21 10° S
Cosmos 1553 Rocket 4.2 21:13:51 10° N 21:20:09 57° E 21:26:20 10° SSE
Cosmos 1441 Rocket 3.5 21:17:47 10° SSE 21:21:25 44° E 21:25:02 10° NNE
YAOGAN 11 4.4 21:20:21 10° S 21:24:36 65° W 21:28:54 10° NNW
ERS-1 Rocket 3.0 21:19:38 10° SSE 21:24:39 87° ENE 21:29:43 10° NNW
Cosmos 1777 Rocket 4.2 21:22:23 10° S 21:27:27 50° ESE 21:32:32 10° NNE
Cosmos 1939 Rocket 2.9 21:25:23 13° SSE 21:28:48 62° ENE 21:32:41 10° N
Nimbus 7 Rocket 4.4 21:23:33 10° NNE 21:29:24 69° ESE 21:35:13 10° S
CZ-2C R/B 0.1 21:30:51 27° S 21:31:37 63° W 21:33:24 10° NNW
H-2A R/B 4.3 21:33:22 10° ENE 21:34:22 11° ENE 21:35:24 10° NE
Cosmos 1437 4.4 21:35:39 18° E 21:35:51 18° E 21:38:12 10° NE
Cosmos 2322 Rocket 2.2 21:32:40 10° NNW 21:38:17 71° ENE 21:42:26 18° SSE
SPOT 5 3.0 21:36:31 19° SE 21:39:29 50° ENE 21:44:00 10° N
Cosmos 2151 3.9 21:38:23 21° SE 21:40:09 29° E 21:43:49 10° NNE
Cosmos 1908 4.0 21:38:51 10° NNE 21:42:27 35° E 21:44:00 25° SE
Cosmos 371 Rocket 3.2 21:40:27 10° NNW 21:45:17 88° E 21:48:39 20° SSE
SPOT 1/Viking Rocket 4.4 21:43:04 20° ESE 21:45:47 33° ENE 21:50:20 10° N
SL-16 R/B 2.2 21:41:12 10° NNW 21:46:54 79° ENE 21:50:48 21° SSE
Cosmos 1151 Rocket 3.6 21:43:28 10° N 21:47:30 38° E 21:49:18 26° SE
Cosmos 1980 Rocket 3.7 21:43:59 10° NW 21:48:59 33° WSW 21:54:00 10° SSW
Cosmos 2360 Rocket 3.3 21:44:46 10° N 21:49:43 30° ENE 21:52:34 20° ESE
Meteor 2-2 Rocket 4.4 21:44:04 10° N 21:50:01 64° E 21:54:11 20° SSE
NOSS 3-1 (C) 4.2 21:50:32 22° SE 21:52:32 27° ESE 21:57:36 10° NE
H-2A R/B 2.7 21:51:07 13° S 21:55:00 57° WSW 21:59:29 10° NNW
Cosmos 1538 Rocket 4.0 21:51:35 10° NNW 21:56:56 85° WSW 22:00:28 22° SSE
Cosmos 923 Rocket 4.5 21:56:02 10° N 22:01:00 44° ENE 22:03:12 29° ESE
Cosmos 1437 Rocket 2.6 21:58:24 10° N 22:02:13 80° E 22:03:44 35° SSE
Cosmos 1674 2.6 22:01:11 23° S 22:03:28 90° ESE 22:07:20 10° N
Cosmos 2228 Rocket 4.3 21:59:36 10° NNW 22:03:46 39° W 22:07:58 10° SSW
Cosmos 1328 Rocket 4.3 22:00:28 10° NNW 22:04:47 50° W 22:08:14 15° SSW
S3M 4.4 21:58:56 10° NNW 22:04:55 59° W 22:10:47 11° S
PSLV R/B 3.2 22:04:08 43° S 22:05:00 77° W 22:08:05 10° NNW
Cosmos 1833 4.2 22:05:29 10° SSW 22:11:13 84° WNW 22:16:56 10° NNE
MetOp-B 4.1 22:08:44 27° SSE 22:11:47 87° ENE 22:17:10 10° NNW
Cosmos 1300 4.1 22:11:17 10° NNE 22:14:20 24° ENE 22:14:20 24° ENE
SL-08 RB Rocket 4.3 22:14:41 35° ESE 22:15:44 41° ENE 22:19:56 10° N
CZ-4B R/B 3.5 22:11:08 10° NNE 22:16:26 89° ESE 22:20:20 18° SSW
Cosmos 2058 3.1 22:16:00 44° ESE 22:16:29 47° E 22:20:26 10° NNE
Cosmos 1328 3.6 22:16:12 46° SSE 22:17:16 73° E 22:21:13 10° N
GPS 2-04 Rocket1 3.1 22:14:55 10° W 22:19:06 48° SSW 22:19:40 44° S
Cosmos 773 Rocket 4.0 22:21:35 10° NNW 22:26:47 79° WSW 22:28:49 38° S
COSMOS 2428 3.8 22:23:48 10° N 22:28:47 31° ENE 22:30:25 26° E
Landsat 7 4.3 22:30:39 40° E 22:31:27 44° ENE 22:35:57 10° N
Cosmos 304 Rocket 3.7 22:27:49 10° NNW 22:32:38 70° ENE 22:33:38 53° SE
FALCON 9 R/B 4.1 22:03:35 10° WSW 22:35:50 86° S 22:42:43 12° E
Delta 2 Rocket 3.8 22:35:26 10° WSW 22:37:41 38° WSW 22:37:41 38° WSW
BREEZE M DEB (TANK) 4.4 22:39:00 10° WSW 22:39:43 14° SW 22:39:43 14° SW
USA 245 3.9 22:42:13 37° WNW 22:42:13 37° WNW 22:44:06 10° NNW
YAOGAN 6 3.6 22:43:09 35° WSW 22:43:43 38° W 22:47:08 10° NNW
ATLAS CENTAUR R/B 3.7 22:44:23 10° WNW 22:46:43 14° WSW 22:48:06 12° SW
Terra 2.3 22:47:00 44° E 22:47:18 44° ENE 22:51:50 10° N
SL-14 R/B 3.3 22:49:06 70° NE 22:49:06 70° NE 22:52:42 10° N
Cosmos 2219 Rocket 3.6 22:48:50 10° N 22:53:18 24° ENE 22:54:24 23° ENE
NOSS 3-1 (A) 3.2 22:52:29 49° S 22:53:58 66° ESE 23:00:13 10° NE
DELTA 2 R/B (1) 3.8 22:48:47 10° WNW 22:54:19 66° NNE 22:56:17 39° E
Cosmos 2315 Rocket 4.2 22:50:27 10° NNW 22:56:37 67° W 22:59:01 38° SSW
Cosmos 2298 Rocket 3.9 22:56:03 57° S 22:57:10 84° ESE 23:02:30 10° NNE
CARTOSAT-1 3.8 22:57:29 58° ENE 22:57:29 58° ENE 23:01:30 10° N
ARGOS 3.5 22:56:06 42° SSW 22:57:43 59° W 23:03:04 10° NNW
Meteor 1-27 4.1 22:55:25 10° N 23:01:08 89° W 23:02:14 60° S
Cosmos 2112 Rocket 4.0 22:57:09 10° NNW 23:02:22 73° WSW 23:03:08 62° SSW
Cosmos 1271 Rocket 4.0 22:59:10 10° N 23:01:41 33° NE 23:01:41 33° NE
Cosmos 2219 3.7 22:58:40 18° SW 23:02:57 57° WNW 23:08:38 10° NNE
Cosmos 1633 Rocket 3.0 23:03:26 81° WNW 23:03:26 81° WNW 23:07:47 10° N
Sich 1 3.1 23:05:01 72° W 23:05:07 73° W 23:09:33 10° N
Cosmos 2333 4.4 23:06:59 10° NNW 23:12:38 57° ENE 23:13:11 55° E
H-2A R/B 1.9 23:12:25 74° S 23:12:56 86° WSW 23:18:21 10° NNW
Cosmos 2322 4.2 23:09:02 10° NNW 23:14:32 49° WSW 23:15:33 44° SW
Cosmos 1937 Rocket 3.4 23:15:06 72° E 23:15:06 72° E 23:20:05 10° NNE
Spot 2 4.3 23:10:18 10° NNE 23:15:27 89° ESE 23:15:34 86° S
ATLAS 2AS CENTAUR R/B 3.4 23:16:57 39° ESE 23:16:57 39° ESE 23:23:45 10° NE
Cosmos 2082 4.5 23:18:02 38° ENE 23:18:02 38° ENE 23:22:15 10° NE
Cosmos 1726 3.2 23:14:04 10° NNW 23:16:52 44° NW 23:16:52 44° NW
Cosmos 2237 Rocket 3.6 23:14:13 10° N 23:18:57 26° ENE 23:19:39 25° ENE
Nadezhda 1 Rocket 3.8 23:25:48 10° N 23:31:54 77° E 23:32:17 74° ESE
Cosmos 990 Rocket 4.2 23:33:11 59° NE 23:33:11 59° NE 23:37:27 10° NNE
Cosmos 2360 Rocket 3.3 23:28:41 10° NW 23:33:36 31° WSW 23:34:21 30° WSW
Cosmos 1745 Rocket 4.2 23:36:53 53° SW 23:38:09 65° W 23:44:20 10° N
ATLAS 3B R/B 4.4 23:39:57 10° N 23:45:21 23° NE 23:48:24 17° E
Cosmos 1709 Rocket 4.0 23:47:08 62° ENE 23:47:08 62° ENE 23:52:52 10° NNE
Cosmos 1626 4.2 23:53:56 26° NNW 23:53:56 26° NNW 23:55:47 10° N
Cosmos 2227 Rocket 2.2 23:54:43 76° N 23:54:43 76° N 23:59:58 10° NNE
